Piney Island, NC

11:55 PM EDT on September 20, 2017 (GMT -0400)
Piney Island

Weather History for KNBT - February, 2013

Change the Weather History Date:

Friday, February 1, 2013

  Actual Average (KMRH) Record (KMRH)
Temperature  
Mean Temperature 44 °F -  
Max Temperature 53 °F 57 °F 73 °F (1990)
Min Temperature 33 °F 35 °F 14 °F (1965)
Degree Days  
Heating Degree Days 22    
Moisture  
Dew Point 22 °F    
Average Humidity 46    
Maximum Humidity 67    
Minimum Humidity 27    
Precipitation  
Precipitation 0.00 in - - ()
Sea Level Pressure  
Sea Level Pressure 30.17 in    
Wind  
Wind Speed 14 mph (West)    
Max Wind Speed 32 mph    
Max Gust Speed 41 mph    
Averages and records for this station are not official NWS values.
T = Trace of Precipitation, MM = Missing Value Source: NWS Daily Summary

Daily Weather History Graph

Daily Weather History Graph

Search for Another Location

Airport or City:

Trip Planner

Search our weather history database for the weather conditions in past years. The results will help you decide how hot, cold, wet, or windy it might be!

Date:

Astronomy

Feb. 01, 2013 Rise Set
Actual Time 7:04 AM EST 5:34 PM EST
Civil Twilight 6:37 AM EST 6:01 PM EST
Nautical Twilight 6:07 AM EST 6:31 PM EST
Astronomical Twilight 5:37 AM EST 7:01 PM EST
Moon 11:22 PM EST (2/1) 9:51 AM EST (2/1)
Length of Visible Light 11h 23m
Length of Day
10h 30m
Waning Gibbous, 70% of the Moon is Illuminated
Feb 1
Waning Gibbous
Feb 3
Last Quarter
Feb 10
New
Feb 17
First Quarter
Feb 25
Full

Hourly Weather History & Observations

Time (EST) Temp. Windchill Dew Point Humidity Pressure Visibility Wind Dir Wind Speed Gust Speed Precip Events Conditions
12:56 AM 41.0 °F 36.4 °F 30.9 °F 67% 30.08 in - SW 6.9 mph - N/A   Clear
1:56 AM 41.0 °F 35.8 °F 30.0 °F 65% 30.08 in - WSW 8.1 mph - N/A   Clear
2:56 AM 41.0 °F 35.8 °F 28.9 °F 62% 30.07 in - SW 8.1 mph - N/A   Clear
3:56 AM 39.9 °F 34.5 °F 28.9 °F 65% 30.06 in - SW 8.1 mph - N/A   Clear
4:56 AM 39.0 °F 33.4 °F 28.0 °F 65% 30.04 in - SSW 8.1 mph - N/A   Clear
5:56 AM 43.0 °F 36.0 °F 28.0 °F 56% 30.03 in - SW 13.8 mph - N/A   Clear
6:56 AM 46.0 °F 38.8 °F 28.0 °F 50% 30.01 in - SW 18.4 mph 24.2 mph N/A   Clear
7:56 AM 48.0 °F - 28.9 °F 48% 30.01 in - SW 18.4 mph 28.8 mph N/A   Clear
8:56 AM 52.0 °F - 28.0 °F 40% 30.02 in - WSW 32.2 mph 41.4 mph N/A   Clear
9:56 AM 53.1 °F - 30.9 °F 43% 30.04 in - West 27.6 mph 41.4 mph N/A   Clear
10:56 AM 52.0 °F - 30.9 °F 45% 30.06 in - West 26.5 mph 39.1 mph N/A   Partly Cloudy
11:56 AM 46.9 °F - 32.0 °F 56% 30.11 in - NW 26.5 mph 33.4 mph N/A   Partly Cloudy
12:56 PM 46.0 °F 38.3 °F 19.0 °F 34% 30.13 in - WNW 20.7 mph 39.1 mph N/A   Partly Cloudy
1:56 PM 46.0 °F 37.4 °F 17.1 °F 31% 30.16 in - NW 25.3 mph 33.4 mph N/A   Clear
2:56 PM 45.0 °F 38.2 °F 15.1 °F 30% 30.18 in - NW 15.0 mph 25.3 mph N/A   Clear
3:56 PM 44.1 °F 35.7 °F 12.0 °F 27% 30.22 in - NW 20.7 mph 27.6 mph N/A   Clear
4:56 PM 41.0 °F 31.9 °F 10.0 °F 28% 30.26 in - WNW 19.6 mph 23.0 mph N/A   Clear
5:56 PM 39.0 °F 30.3 °F 10.9 °F 32% 30.29 in - NW 16.1 mph 21.9 mph N/A   Clear
6:56 PM 37.9 °F 29.6 °F 12.0 °F 35% 30.31 in - NW 13.8 mph - N/A   Clear
7:56 PM 37.0 °F 29.8 °F 12.9 °F 37% 30.34 in - NW 10.4 mph - N/A   Clear
8:56 PM 36.0 °F 29.0 °F 15.1 °F 43% 30.36 in - North 9.2 mph - N/A   Clear
9:56 PM 35.1 °F 28.6 °F 15.1 °F 44% 30.38 in - North 8.1 mph - N/A   Clear
10:56 PM 34.0 °F 26.6 °F 12.9 °F 42% 30.40 in - NNW 9.2 mph - N/A   Clear
11:56 PM 33.1 °F 25.5 °F 18.0 °F 54% 30.40 in - NNW 9.2 mph - N/A   Clear